STARLINK-32440, 61714

Orbit data source: Space-Track

STARLINK-32440, 61714 is a payload satellite owned by SpaceX/Seattle (US) in LEO that was launched on Wed, 30 Oct 2024 UTC via an FALCON 9 launch vehicle from the Air Force Eastern Test Range (AFETR). Payloads include a variety of satellites, spacecraft, and rockets equipped with specific instruments for various scientific and technological missions. These include communications satellites like Starlink; space stations such as the ISS; scientific satellites like the Hubble; Earth observation satellites from companies like Planet Labs, Umbra, and HawkEye 360; GPS; miniature CubeSats for education and research; and military/defense satellites.

Loading next visibility...
STARLINK-32440 details
Identifier
61714, 2024-196H
Orbit
LEO
Last TLE update7 hours ago
Origin
Flag of USSpaceX/Seattle (US)
ManufacturerSpaceX/Seattle
MissionOperational spacecraft
Bus & MotorSTARLINK V2M, Unknown motor
Mass730 kg wet, ~700 kg dry
Launch date (UTC)
2024-10-30 (2 months ago)
Launch vehicle
FALCON 9
Launch site
Air Force Eastern Test Range (AFETR)
Object type
Payload
Rocket body
Debris
Shape & HBRUnknown
Radar Cross SectionLarge (>1 m²)

Expand to show TLE details & history

TLE from 7 hours ago
0 STARLINK-32440
1 61714U 24196H   24361.14500962  .00001276  00000-0  41903-4 0  9991
2 61714  53.1650 340.4509 0001724 109.0169 251.1023 15.39615731  9684
Epoch: 2024-12-26T03:28Z
Definitive object data (Epoch: 2024-12-26T03:28:48.831Z)
Latitude0.00001°
Longitude-166.88117°
Altitude448.53 km
Speed7.644 km/s
True Right ascension22h 41m 48s
True Declination0° 00' 00"
Sunlit
Object was in daylight at TLE epoch
Visualization TLE readout
Latitude-36.37779°
Longitude44.98261°
Altitude459.469 km
Speed7.636 km/s
Apparent Right ascension16h 50m 52s
Apparent Declination-65° 14' 32"
Sunlit
Object is in daylight
Visualization observer readout
Local Sidereal Time10:02:59
Azimuth147.406° SSE
Elevation-40.49°
Doppler factor1
Orbital elements
Apogee altitude448.678 km
Perigee altitude446.325 km
Semi-major axis6,825.638 km
Eccentricity0.0001724
Inclination53.165°
RAAN340.4509°
Arg. of periapsis109.0169°
True anomaly251.08361°
Mean anomaly251.1023°
Eccentric anomaly251.09296°
Mean motion3.84883 °/min
BSTAR0.000041903
Orbital period93.54 mins
Loading maneuver chart data...
Loading historical data...
Loading historical data...
Loading historical data...
Loading historical data...
Loading historical data...
Loading historical data...
Loading historical data...

STARLINK-32440 Visibility forecast

Observer location: undefined°, undefined

Span
Click to sort rows by Start time (UTC) header in descending order
Start Az.
Max El. time (UTC)
Max El. Az.
Max El.
End time (UTC)
End Az.
6 mins2024-12-27 01:27:45.673Z225.759° WSW2024-12-27 01:30:45.673Z206.41° SW43.034°2024-12-27 01:33:45.673Z52.308° ENE
5 mins2024-12-27 08:01:45.673Z322.407° NNW2024-12-27 08:03:45.673Z49.069° ENE41.6°2024-12-27 08:06:45.673Z119.086° SE
|